Location: Truman State University Observatory
(40.1787°N, 92.6006°W)
Time: 19:55:17
(UTC-06:00)

OTV 5 (USA 277) - Visible Passes

Search period start: 23 February 2018 00:00
Search period end: 05 March 2018 00:00
Orbit: 404 x 417 km, 43.0° (Epoch: 07 September)

Date Brightness Start Highest point End Pass type
(mag) Time Alt. Az. Time Alt. Az. Time Alt. Az.
23 Feb ? 05:03:20 50° SE 05:03:20 50° SE 05:06:16 10° ENE visible
24 Feb ? 04:14:44 12° E 04:14:44 12° E 04:15:06 10° E visible
24 Feb ? 05:47:30 24° W 05:49:17 64° NNW 05:52:33 10° ENE visible
25 Feb ? 04:58:49 55° ENE 04:58:49 55° ENE 05:01:30 10° ENE visible
26 Feb ? 04:10:07 12° ENE 04:10:07 12° ENE 04:10:25 10° ENE visible
26 Feb ? 05:42:52 24° WNW 05:44:34 49° N 05:47:47 10° ENE visible
27 Feb ? 04:54:08 43° NE 04:54:08 43° NE 04:56:41 10° ENE visible
28 Feb ? 04:05:23 11° ENE 04:05:23 11° ENE 04:05:36 10° ENE visible
28 Feb ? 05:38:08 23° WNW 05:39:53 51° N 05:43:06 10° E visible
01 Mar ? 04:49:24 41° NE 04:49:24 41° NE 04:51:57 10° ENE visible
02 Mar ? 04:00:41 11° ENE 04:00:41 11° ENE 04:00:50 10° ENE visible
02 Mar ? 05:33:26 26° WNW 05:35:09 72° NNE 05:38:26 10° E visible
03 Mar ? 04:44:46 45° ENE 04:44:46 45° ENE 04:47:18 10° E visible
04 Mar ? 03:56:10 10° E 03:56:10 10° E 03:56:10 10° E visible
04 Mar ? 05:28:55 30° W 05:30:18 62° SSW 05:33:33 10° ESE visible
